Regional Weather Roundup
Issued by NWS

Home | Current Version | Previous Version | Text Only | Print | Product List | Glossary Off
Versions: 1 2 3 4 5 6 7 8 9 10 11 12 13 14 15 16 17 18 19 20 21 22 23 24 25 26 27 28 29 30 31 32 33 34 35 36 37 38 39 40 41 42 43 44 45 46 47 48 49 50

000
ASUS43 KIND 181309
RWRIN

WEATHER ROUNDUP FOR INDIANA
NATIONAL WEATHER SERVICE INDIANAPOLIS IN
800 AM EST MON DEC 18 2017

NOTE: "FAIR" INDICATES FEW OR NO CLOUDS BELOW 12,000 FEET WITH NO
SIGNIFICANT WEATHER AND/OR OBSTRUCTIONS TO VISIBILITY.

* - STATION DOES NOT REPORT WEATHER SUCH AS PRECIPITATION OR FOG.

+ - STATION NOT QUALITY CONTROLLED BY THE NATIONAL WEATHER SERVICE.
    USE DATA WITH CAUTION...ESPECIALLY DEWPOINT AND RELATIVE
    HUMIDITY OBSERVATIONS.

INZ001>003-010>013-019-020-181400-
NORTHWEST INDIANA

CITY           SKY/WX    TMP DP  RH WIND       PRES   REMARKS
GARY /AIRPORT/ CLOUDY    45  43  93 SW9       29.96R
KNOX *+        CLOUDY    41  41 100 SW9       29.97R
LA PORTE +     CLOUDY    39  39  99 SW8       29.96S FOG     WCI  34
MICHIGAN CITY+ CLOUDY    41  41 100 SW10      29.96S
MONTICELLO +   DRIZZLE   42  40  95 SW9       30.00R
RENSSELAER +   CLOUDY    43  39  87 SW10      29.99R FOG
VALPARAISO     CLOUDY    44  42  93 SW14      29.97R FOG

$$

LMZ046-743>745-181400-
SOUTHERN LAKE MICHIGAN

STATION/POSITION TIME  TEMP    WIND        PRES    WAVE
                       AIR SEA DIR/SP/G            HT
                 (UTC) (F)     (DEG/KT/KT) (MB)    (FT)
BURNS HARBOR     1240   43     220/ 10/ 15 1014.9R
MICHIGAN CITY    1240   42     200/ 13/ 15   N/A

$$

INZ004-005-014>016-021>024-181400-
NORTH CENTRAL INDIANA

CITY           SKY/WX    TMP DP  RH WIND       PRES   REMARKS
ELKHART        CLOUDY    39  37  93 SW8       29.95S FOG     WCI  34
GOSHEN         CLOUDY    40  39  97 SW13      29.96R FOG     WCI  32
LOGANSPORT +   DRIZZLE   41  39  93 SW10      30.01S
PERU/GRISSOM   CLOUDY    41  41 100 SW12      30.00R
ROCHESTER +    CLOUDY    43  43 100 SW9       29.98S FOG
SOUTH BEND     CLOUDY    38  38 100 SW10      29.96R FOG     WCI  31
WARSAW +       DRIZZLE   39  39 100 SW7       29.97S WCI  34

$$

INZ006>009-017-018-025>027-181400-
NORTHEAST INDIANA

CITY           SKY/WX    TMP DP  RH WIND       PRES   REMARKS
AUBURN +       DRIZZLE   39  37  93 SW7       29.98R WCI  34
FORT WAYNE     LGT RAIN  40  39  97 SW12      29.99S FOG     WCI  33
HUNTINGTON +   LGT RAIN  39  38  96 SW8       30.00R WCI  34
KENDALLVILLE + CLOUDY    38  38 100 SW9       29.96S FOG     WCI  32

$$

INZ028-029-035-036-043>045-051>053-181400-
WEST CENTRAL INDIANA

CITY           SKY/WX    TMP DP  RH WIND       PRES   REMARKS
CRAWFORDSVL +  CLOUDY    40  40 100 SW8       30.04R FOG     WCI  35
GREENCASTLE +  CLOUDY    41  41 100 SW5       30.05S FOG
LAFAYETTE      CLOUDY    43  42  97 SW7       30.02R
TERRE HAUTE    CLOUDY    44  42  93 SW7       30.07R

$$

INZ030>032-037>040-046>048-054>057-064-065-181400-
CENTRAL INDIANA

CITY           SKY/WX    TMP DP  RH WIND       PRES   REMARKS
COLUMBUS       LGT RAIN  41  39  93 S7        30.08R
FRANKFORT +    CLOUDY    44  43  95 SW10      30.04R FOG
GREENWOOD *+   CLOUDY    45  44  95 SW7       30.05S
INDIANAPOLIS   CLOUDY    43  41  93 SW10      30.05S
-EAGLE CREEK   CLOUDY    43  41  93 SW6       30.03S
KOKOMO +       CLOUDY    42  41  96 SW15      30.02R
MARION +       CLOUDY    40  39  98 SW10      30.02R FOG     WCI  33
MT COMFORT *+  CLOUDY    41  41 100 SW8       30.04S
SHELBYVILLE    CLOUDY    42  39  89 S10       30.05S FOG
ZIONSVILLE +   CLOUDY    40  40  99 SW10      30.03S FOG     WCI  34

$$

INZ033-034-041-042-049-050-058-059-181400-
EAST CENTRAL INDIANA

CITY           SKY/WX    TMP DP  RH WIND       PRES   REMARKS
MUNCIE         CLOUDY    42  39  89 SW10      30.02R FOG
RICHMOND +     FOG       37  37 100 SW10      30.05S VSB 1   WCI  30

$$

INZ060-061-067>069-081>083-085>088-181400-
SOUTHWEST INDIANA

CITY           SKY/WX    TMP DP  RH WIND       PRES   REMARKS
EVANSVILLE     LGT RAIN  44  44 100 S7        30.12S FOG
HUNTINGBURG +  CLOUDY    43  43 100 S7        30.11F FOG
WASHINGTON +   CLOUDY    44  42  94 SW8       30.10R FOG

$$

INZ062-063-066-070>080-084-089>092-181400-
SOUTH CENTRAL AND SOUTHEAST INDIANA

CITY           SKY/WX    TMP DP  RH WIND       PRES   REMARKS
BEDFORD +      CLOUDY    43  41  93 S6        30.08S FOG
BLOOMINGTON    CLOUDY    43  41  93 SW8       30.07R FOG
MADISON *+     CLOUDY    43  41  93 SW7       30.11S
NORTH VERNON + CLOUDY    41  41 100 S10       30.09S FOG
SEYMOUR +      CLOUDY    45  43  93 S6        30.09S FOG

$$





USA.gov is the U.S. government's official web portal to all federal, state and local government web resources and services.